DL3TR-13 Weather Reports


Display with metric or nautical units.
time (UTC)temp
F
wind
direction
speed
MPH
gust
MPH
rain 1hr
in
rain 24hr
in
rain mn
in
humidity
%
barometer
mb
20260507131310 60 247 6.0 11.0 0.00 0.09 0.09 70 1013.6
20260507130309 59 233 6.0 11.0 0.00 0.09 0.09 72 1013.6
20260507125310 60 229 7.0 10.0 0.00 0.09 0.09 69 1013.4
20260507124309 59 221 5.0 10.0 0.00 0.09 0.09 69 1013.6
20260507123309 59 212 6.0 13.0 0.00 0.09 0.09 73 1013.5
20260507122309 59 296 5.0 14.0 0.00 0.09 0.09 70 1013.5
20260507121309 60 246 4.0 10.0 0.00 0.09 0.09 73 1013.4
20260507120309 58 232 5.0 9.0 0.00 0.09 0.09 72 1013.6
20260507115309 57 240 5.0 9.0 0.00 0.09 0.09 77 1013.7
20260507114309 55 283 6.0 9.0 0.00 0.09 0.09 79 1013.8
20260507113309 55 246 6.0 11.0 0.00 0.09 0.09 74 1013.7
20260507112309 55 221 4.0 8.0 0.00 0.09 0.09 79 1013.8
20260507111309 56 226 6.0 11.0 0.00 0.09 0.09 78 1013.9
20260507110310 54 236 4.0 9.0 0.00 0.09 0.09 79 1013.9
20260507105310 53 279 4.0 8.0 0.00 0.09 0.09 83 1013.9
20260507104309 52 270 3.0 8.0 0.00 0.09 0.09 83 1014.1
20260507103310 52 267 5.0 8.0 0.00 0.09 0.09 82 1014.1
20260507102309 53 247 4.0 12.0 0.00 0.09 0.09 82 1014.0
20260507101310 53 241 4.0 11.0 0.00 0.09 0.09 81 1014.0
20260507100309 53 236 4.0 9.0 0.00 0.09 0.09 82 1014.0
20260507095309 52 294 6.0 10.0 0.00 0.09 0.09 85 1014.0
20260507094309 53 229 4.0 8.0 0.00 0.09 0.09 84 1014.0
20260507093310 51 267 4.0 10.0 0.00 0.09 0.09 87 1014.0
20260507092309 51 267 5.0 9.0 0.00 0.09 0.09 87 1013.9
20260507091309 50 265 5.0 10.0 0.00 0.09 0.09 87 1013.9
20260507090311 51 265 4.0 6.0 0.00 0.09 0.09 90 1013.7
20260507085312 50 240 4.0 7.0 0.00 0.09 0.09 92 1013.7
20260507084311 49 244 4.0 7.0 0.00 0.09 0.09 91 1013.7
20260507083312 49 231 4.0 7.0 0.00 0.09 0.09 92 1013.6
20260507082312 49 225 3.0 9.0 0.00 0.09 0.09 92 1013.4
20260507081311 49 242 4.0 10.0 0.00 0.09 0.09 93 1013.3
20260507080311 48 226 3.0 10.0 0.01 0.09 0.09 93 1013.3
20260507075311 48 236 4.0 7.0 0.01 0.09 0.09 93 1013.3
20260507074311 48 239 4.0 10.0 0.02 0.09 0.09 94 1013.2
20260507073312 47 214 3.0 6.0 0.02 0.09 0.09 94 1013.2
20260507072312 47 265 3.0 5.0 0.04 0.09 0.09 93 1013.1
20260507071311 47 249 2.0 6.0 0.06 0.09 0.09 93 1013.0
20260507070311 47 232 4.0 7.0 0.06 0.09 0.09 93 1013.0
20260507065311 47 190 4.0 9.0 0.06 0.09 0.09 93 1012.8
20260507064311 47 223 5.0 7.0 0.06 0.08 0.08 93 1012.7
20260507063312 47 244 4.0 9.0 0.06 0.07 0.07 93 1012.7
20260507062311 47 205 6.0 8.0 0.05 0.06 0.06 93 1012.7
20260507061311 47 210 4.0 8.0 0.03 0.04 0.04 93 1012.5
20260507060311 47 224 3.0 8.0 0.02 0.03 0.03 93 1012.5
20260507055311 46 236 4.0 9.0 0.03 0.03 0.03 92 1012.4
20260507054311 46 217 4.0 9.0 0.02 0.02 0.02 92 1012.3
20260507053312 47 211 4.0 8.0 0.02 0.02 0.02 91 1012.3
20260507052311 47 217 3.0 7.0 0.01 0.01 0.01 92 1012.1
20260507051311 46 207 3.0 7.0 0.01 0.01 0.01 91 1011.9
20260507050311 46 292 2.0 6.0 0.01 0.01 0.01 92 1011.8
20260507045311 46 220 3.0 4.0 0.00 0.00 0.00 92 1011.6
20260507044311 46 200 3.0 9.0 0.00 0.00 0.00 92 1011.5
20260507043312 46 233 3.0 8.0 0.00 0.00 0.00 93 1011.5
20260507042311 45 213 3.0 5.0 0.00 0.00 0.00 93 1011.2
20260507041311 45 230 2.0 5.0 0.00 0.00 0.00 93 1011.2
20260507040311 45 213 3.0 6.0 0.00 0.00 0.00 93 1011.2
20260507035311 44 219 2.0 5.0 0.00 0.00 0.00 93 1011.0
20260507034311 43 225 0.0 4.0 0.00 0.00 0.00 93 1011.1
20260507033312 43 201 2.0 5.0 0.00 0.00 0.00 92 1011.0
20260507032311 44 215 2.0 5.0 0.00 0.00 0.00 92 1010.8
20260507031311 45 221 1.0 4.0 0.00 0.00 0.00 93 1010.8
20260507030311 44 209 0.0 2.0 0.00 0.00 0.00 92 1011.0
20260507025311 45 209 1.0 3.0 0.00 0.00 0.00 92 1010.9
20260507024311 46 207 1.0 3.0 0.00 0.00 0.00 93 1010.9
20260507023312 45 203 2.0 5.0 0.00 0.00 0.00 92 1010.9
20260507022311 45 223 1.0 3.0 0.00 0.00 0.00 93 1011.0
20260507021311 45 234 1.0 3.0 0.00 0.00 0.00 92 1010.8
20260507020311 44 202 0.0 1.0 0.00 0.00 0.00 92 1010.8
20260507015311 45 202 0.0 2.0 0.00 0.00 0.00 92 1010.6
20260507014311 44 200 0.0 0.0 0.00 0.00 0.00 92 1010.5
20260507013313 45 200 0.0 0.0 0.00 0.00 0.00 91 1010.5
20260507012313 44 200 0.0 0.0 0.00 0.00 0.00 91 1010.5
20260507011312 45 200 0.0 0.0 0.00 0.00 0.00 91 1010.4
20260507010311 45 200 0.0 2.0 0.00 0.00 0.00 91 1010.4
20260507005311 44 200 0.0 0.0 0.00 0.00 0.00 90 1010.3
20260507004311 45 200 0.0 1.0 0.00 0.00 0.00 90 1010.2
20260507003311 45 207 0.0 1.0 0.00 0.00 0.00 91 1010.1
20260507002311 45 207 0.0 1.0 0.00 0.00 0.00 90 1010.2
20260507001311 45 207 0.0 2.0 0.00 0.00 0.00 90 1010.2
20260507000311 44 207 1.0 3.0 0.00 0.00 0.00 90 1010.4
20260506235311 45 207 1.0 3.0 0.00 0.00 0.00 90 1010.4
20260506234311 45 206 2.0 5.0 0.00 0.00 0.00 90 1010.4
20260506233311 45 192 0.0 1.0 0.00 0.00 0.00 90 1010.4
20260506232311 45 191 0.0 2.0 0.00 0.00 0.00 90 1010.5
20260506231311 44 204 0.0 4.0 0.00 0.00 0.00 90 1010.3
20260506230311 44 219 0.0 4.0 0.00 0.00 0.00 89 1010.2
20260506225311 45 206 2.0 6.0 0.00 0.00 0.00 88 1010.2
20260506224311 46 210 3.0 6.0 0.00 0.00 0.00 88 1010.2
20260506223311 46 216 3.0 7.0 0.00 0.00 0.00 88 1010.2
20260506222311 46 211 3.0 7.0 0.00 0.00 0.00 88 1010.1
20260506221311 46 213 5.0 7.0 0.00 0.00 0.00 88 1010.2
20260506220311 46 223 4.0 7.0 0.00 0.00 0.00 90 1010.2
20260506215311 46 216 3.0 8.0 0.00 0.05 0.05 91 1010.2
20260506214311 45 219 3.0 5.0 0.00 0.05 0.05 90 1010.1
20260506213311 46 220 1.0 5.0 0.00 0.05 0.05 89 1010.0
20260506212311 46 213 3.0 7.0 0.00 0.05 0.05 90 1010.0
20260506211311 46 227 3.0 6.0 0.00 0.05 0.05 89 1010.0
20260506210311 46 214 3.0 7.0 0.00 0.05 0.05 90 1009.9
20260506205311 46 196 4.0 6.0 0.00 0.05 0.05 90 1009.8
20260506204326 46 213 3.0 5.0 0.00 0.05 0.05 91 1009.8
20260506203311 46 211 2.0 4.0 0.00 0.05 0.05 91 1009.8
20260506202310 46 205 3.0 7.0 0.00 0.05 0.05 91 1009.7
20260506201311 46 202 3.0 4.0 0.00 0.05 0.05 90 1009.6
20260506200311 46 218 2.0 6.0 0.00 0.05 0.05 90 1009.5
20260506195311 46 215 3.0 4.0 0.00 0.05 0.05 90 1009.5
20260506194310 47 203 1.0 6.0 0.00 0.05 0.05 89 1009.5
20260506193311 47 231 4.0 5.0 0.00 0.05 0.05 89 1009.4
20260506192311 47 214 2.0 7.0 0.00 0.05 0.05 90 1009.2
20260506191311 47 202 2.0 4.0 0.00 0.05 0.05 90 1009.1
20260506190311 47 215 1.0 4.0 0.00 0.05 0.05 89 1008.8
20260506185311 47 221 2.0 4.0 0.00 0.05 0.05 89 1008.6
20260506184310 47 213 3.0 4.0 0.00 0.05 0.05 89 1008.6
20260506183311 47 226 2.0 4.0 0.00 0.05 0.05 89 1008.6
20260506182310 47 226 2.0 6.0 0.00 0.05 0.05 88 1008.4
20260506181311 48 228 3.0 7.0 0.00 0.05 0.05 87 1008.2
20260506180310 49 238 4.0 9.0 0.00 0.05 0.05 86 1008.2
20260506175310 49 240 5.0 8.0 0.00 0.05 0.05 87 1008.1
20260506174311 50 240 5.0 6.0 0.00 0.05 0.05 87 1008.2
20260506173310 50 235 3.0 8.0 0.00 0.05 0.05 87 1008.0
20260506172310 50 203 4.0 9.0 0.00 0.05 0.05 87 1008.0
20260506171310 50 240 5.0 11.0 0.00 0.05 0.05 87 1007.8
20260506170311 50 219 7.0 11.0 0.00 0.05 0.05 86 1007.6
20260506165310 51 216 6.0 8.0 0.00 0.05 0.05 87 1007.6
20260506164310 50 221 4.0 7.0 0.00 0.05 0.05 89 1007.2
20260506163310 49 231 4.0 9.0 0.00 0.05 0.05 89 1007.6
20260506162310 49 227 6.0 8.0 0.00 0.05 0.05 88 1007.6
20260506161310 49 236 4.0 12.0 0.00 0.05 0.05 89 1007.9
20260506160310 49 235 7.0 13.0 0.00 0.05 0.05 88 1007.9
20260506155311 49 199 7.0 15.0 0.00 0.05 0.05 88 1007.8
20260506154310 50 230 7.0 13.0 0.00 0.05 0.05 88 1007.6
20260506153310 50 239 6.0 16.0 0.01 0.05 0.05 89 1007.1
20260506152311 49 210 7.0 13.0 0.01 0.05 0.05 88 1006.9
20260506151310 50 227 6.0 18.0 0.01 0.05 0.05 90 1006.8
20260506150310 49 234 8.0 18.0 0.01 0.05 0.05 88 1006.6
20260506145310 49 279 7.0 23.0 0.01 0.05 0.05 87 1006.5
20260506144311 50 252 12.0 23.0 0.01 0.05 0.05 83 1006.1
20260506143311 54 219 8.0 23.0 0.01 0.04 0.04 76 1005.8
20260506142310 61 232 7.0 7.0 0.01 0.04 0.04 76 1004.8
20260506141310 60 234 4.0 6.0 0.01 0.04 0.04 76 1004.7
20260506140310 61 231 2.0 4.0 0.01 0.04 0.04 75 1004.4
20260506135311 60 170 2.0 4.0 0.02 0.04 0.04 73 1004.3
20260506134311 59 196 2.0 5.0 0.02 0.04 0.04 73 1004.4
20260506133310 58 144 1.0 6.0 0.02 0.03 0.03 82 1004.4
20260506132311 56 89 2.0 7.0 0.03 0.03 0.03 84 1004.5